Filename:  Sand02.wk1,,,
"Source:  Department of Public Works, City and County of Honolulu",,,
Data is hourly. Covers 07/01/93-05/31/94,,,
Location:,Sand Island,,
NOTE:,GAPS IN EFFLUENT FLOW DATA FOR 9/7/93,,
Unit of measurement for influent and effluent flows is million-gallons/day (mgd),,,
DATE:,TIME:,Influent Flow (mgd),Effluent Flow (mgd)
07/01/93,00:00:00,57.745,68.531
07/01/93,01:00:00,48.399,58.686
07/01/93,02:00:00,38.072,47.754
07/01/93,03:00:00,39.64,47.932
07/01/93,04:00:00,37.516,44.554
07/01/93,05:00:00,35.817,44.019
07/01/93,06:00:00,41.634,50.225
07/01/93,07:00:00,59.412,69.89
07/01/93,08:00:00,73.628,83.916
07/01/93,09:00:00,78.105,88.909
07/01/93,10:00:00,75.196,84.52
07/01/93,11:00:00,70.327,82.125
07/01/93,12:00:00,68.431,80.541
07/01/93,13:00:00,68.137,80.757
07/01/93,14:00:00,68.072,80.361
07/01/93,15:00:00,68.431,80.987
07/01/93,16:00:00,72.549,84.079
07/01/93,17:00:00,72.68,83.786
07/01/93,18:00:00,72.287,83.324
07/01/93,19:00:00,78.464,87.771
07/01/93,20:00:00,76.144,87.114
07/01/93,21:00:00,75.49,86.155
07/01/93,22:00:00,71.895,82.32
07/01/93,23:00:00,65.425,77.98
07/02/93,00:00:00,59.477,71.456
07/02/93,01:00:00,50.229,60.755
07/02/93,02:00:00,40.131,48.795
07/02/93,03:00:00,37.974,46.985
07/02/93,04:00:00,35.981,44.001
07/02/93,05:00:00,37.386,46.254
07/02/93,06:00:00,40.948,49.746
07/02/93,07:00:00,57.908,68.321
07/02/93,08:00:00,70.327,83.355
07/02/93,09:00:00,75.882,86.856
07/02/93,10:00:00,76.046,86.421
07/02/93,11:00:00,71.83,83.522
07/02/93,12:00:00,68.66,81.957
07/02/93,13:00:00,67.157,80.427
07/02/93,14:00:00,68.431,81.129
07/02/93,15:00:00,69.445,82.902
07/02/93,16:00:00,69.902,83.334
07/02/93,17:00:00,71.471,84.33
07/02/93,18:00:00,76.144,85.94
07/02/93,19:00:00,76.667,87.18
07/02/93,20:00:00,75.457,86.172
07/02/93,21:00:00,71.699,84.166
07/02/93,22:00:00,66.961,80.201
07/02/93,23:00:00,65.229,76.302
07/03/93,00:00:00,58.17,70.852
07/03/93,01:00:00,49.706,60.527
07/03/93,02:00:00,42.941,53.446
07/03/93,03:00:00,36.013,44.659
07/03/93,04:00:00,37.124,45.94
07/03/93,05:00:00,36.504,44.411
07/03/93,06:00:00,42.941,52.201
07/03/93,07:00:00,48.431,58.66
07/03/93,08:00:00,50.98,67.17
07/03/93,09:00:00,62.255,86.139
07/03/93,10:00:00,63.399,86.309
07/03/93,11:00:00,77.124,92.752
07/03/93,12:00:00,72.222,85.445
07/03/93,13:00:00,67.941,81.205
07/03/93,14:00:00,66.274,80.586
07/03/93,15:00:00,65.686,78.647
07/03/93,16:00:00,68.497,81.406
07/03/93,17:00:00,73.137,85.021
07/03/93,18:00:00,76.699,87.03
07/03/93,19:00:00,77.386,88.006
07/03/93,20:00:00,74.902,85.555
07/03/93,21:00:00,69.739,82.601
07/03/93,22:00:00,65.947,78.815
07/03/93,23:00:00,63.562,76.156
07/04/93,00:00:00,57.091,68.99
07/04/93,01:00:00,49.51,60.362
07/04/93,02:00:00,41.732,52.301
07/04/93,03:00:00,36.079,45.027
07/04/93,04:00:00,37.353,47.452
07/04/93,05:00:00,36.275,44.436
07/04/93,06:00:00,37.353,48.217
07/04/93,07:00:00,15.392,53.325
07/04/93,08:00:00,56.732,69.749
07/04/93,09:00:00,68.464,82.365
07/04/93,10:00:00,75.457,85.371
07/04/93,11:00:00,76.078,86.195
07/04/93,12:00:00,71.928,83.045
07/04/93,13:00:00,68.235,80.311
07/04/93,14:00:00,66.536,78.5
07/04/93,15:00:00,66.699,78.01
07/04/93,16:00:00,67.843,79.842
07/04/93,17:00:00,71.536,82.925
07/04/93,18:00:00,75,84.247
07/04/93,19:00:00,76.601,85.291
07/04/93,20:00:00,74.019,83.375
07/04/93,21:00:00,66.993,79.241
07/04/93,22:00:00,64.738,76.241
07/04/93,23:00:00,63.595,75.084
07/05/93,00:00:00,59.51,69.409
07/05/93,01:00:00,46.928,57.286
07/05/93,02:00:00,45.654,54.101
07/05/93,03:00:00,40.556,46.531
07/05/93,04:00:00,37.712,46.009
07/05/93,05:00:00,33.138,39.329
07/05/93,06:00:00,39.804,46.461
07/05/93,07:00:00,48.007,56.09
07/05/93,08:00:00,61.144,69.627
07/05/93,09:00:00,73.333,83.74
07/05/93,10:00:00,78.889,87.699
07/05/93,11:00:00,82.451,88.725
07/05/93,12:00:00,78.366,86.046
07/05/93,13:00:00,76.176,83.037
07/05/93,14:00:00,69.608,79.431
07/05/93,15:00:00,62.157,78.057
07/05/93,16:00:00,66.34,78.827
07/05/93,17:00:00,72.386,82.101
07/05/93,18:00:00,76.34,85.046
07/05/93,19:00:00,78.889,89.185
07/05/93,20:00:00,77.909,87.425
07/05/93,21:00:00,76.961,87.257
07/05/93,22:00:00,74.248,83.799
07/05/93,23:00:00,67.647,78.932
07/06/93,00:00:00,58.889,69.892
07/06/93,01:00:00,47.157,55.009
07/06/93,02:00:00,41.601,49.287
07/06/93,03:00:00,40.163,43.927
07/06/93,04:00:00,38.758,46.81
07/06/93,05:00:00,34.477,41.322
07/06/93,06:00:00,42.516,49.54
07/06/93,07:00:00,60.425,71.439
07/06/93,08:00:00,73.922,85.186
07/06/93,09:00:00,78.66,89.096
07/06/93,10:00:00,76.536,85.949
07/06/93,11:00:00,72.026,83.257
07/06/93,12:00:00,68.268,79.901
07/06/93,13:00:00,70.49,80.361
07/06/93,14:00:00,66.176,77.435
07/06/93,15:00:00,65.947,78.177
07/06/93,16:00:00,66.078,76.986
07/06/93,17:00:00,70.948,82.179
07/06/93,18:00:00,78.268,85.339
07/06/93,19:00:00,79.641,87.645
07/06/93,20:00:00,80.36,89.036
07/06/93,21:00:00,78.072,87.575
07/06/93,22:00:00,74.64,82.694
07/06/93,23:00:00,68.072,78.819
07/07/93,00:00:00,59.706,71.069
07/07/93,01:00:00,50,55.831
07/07/93,02:00:00,43.497,51.169
07/07/93,03:00:00,40.261,46.449
07/07/93,04:00:00,37.647,44.427
07/07/93,05:00:00,33.726,40.074
07/07/93,06:00:00,45.098,52.832
07/07/93,07:00:00,63.072,72.39
07/07/93,08:00:00,74.412,84.971
07/07/93,09:00:00,78.203,88.214
07/07/93,10:00:00,77.353,86.532
07/07/93,11:00:00,71.601,82.544
07/07/93,12:00:00,67.712,80.03
07/07/93,13:00:00,66.732,78.914
07/07/93,14:00:00,66.144,78.197
07/07/93,15:00:00,65.327,76.989
07/07/93,16:00:00,66.699,77.844
07/07/93,17:00:00,70.294,82.397
07/07/93,18:00:00,73.823,83.525
07/07/93,19:00:00,76.993,85.99
07/07/93,20:00:00,78.301,87.576
07/07/93,21:00:00,76.928,86.889
07/07/93,22:00:00,74.444,83.677
07/07/93,23:00:00,64.739,74.622
07/08/93,00:00:00,59.15,69.867
07/08/93,01:00:00,50.163,60.276
07/08/93,02:00:00,43.333,50.855
07/08/93,03:00:00,37.418,44.252
07/08/93,04:00:00,34.837,40.464
07/08/93,05:00:00,37.516,46.195
07/08/93,06:00:00,44.281,54.354
07/08/93,07:00:00,59.052,70.162
07/08/93,08:00:00,73.562,84.909
07/08/93,09:00:00,78.693,91.722
07/08/93,10:00:00,75.653,88.26
07/08/93,11:00:00,71.209,83.981
07/08/93,12:00:00,67.941,81.727
07/08/93,13:00:00,66.666,79.389
07/08/93,14:00:00,65.065,77.81
07/08/93,15:00:00,64.183,76.981
07/08/93,16:00:00,65.49,78.065
07/08/93,17:00:00,67.778,80.11
07/08/93,18:00:00,73.66,84.155
07/08/93,19:00:00,74.706,85.837
07/08/93,20:00:00,75.392,86.412
07/08/93,21:00:00,74.15,85.682
07/08/93,22:00:00,72.124,83.079
07/08/93,23:00:00,66.209,78.97
07/09/93,00:00:00,55.948,68.979
07/09/93,01:00:00,46.928,56.231
07/09/93,02:00:00,42.712,52.576
07/09/93,03:00:00,38.333,46.882
07/09/93,04:00:00,33.791,41.959
07/09/93,05:00:00,32.876,42.027
07/09/93,06:00:00,40.425,53.856
07/09/93,07:00:00,54.183,70.366
07/09/93,08:00:00,68.399,84.534
07/09/93,09:00:00,78.726,90.217
07/09/93,10:00:00,77.68,90.15
07/09/93,11:00:00,74.51,86.175
07/09/93,12:00:00,71.111,84.032
07/09/93,13:00:00,67.68,81.131
07/09/93,14:00:00,66.765,79.676
07/09/93,15:00:00,66.013,78.004
07/09/93,16:00:00,66.83,80.596
07/09/93,17:00:00,68.333,82.109
07/09/93,18:00:00,72.124,83.16
07/09/93,19:00:00,75.457,85.234
07/09/93,20:00:00,73.987,85.019
07/09/93,21:00:00,71.275,83.356
07/09/93,22:00:00,66.993,80.507
07/09/93,23:00:00,63.921,77.751
07/10/93,00:00:00,58.072,71.621
07/10/93,01:00:00,49.902,60.697
07/10/93,02:00:00,40.457,51.6
07/10/93,03:00:00,36.536,44.986
07/10/93,04:00:00,36.307,46.664
07/10/93,05:00:00,35.687,44.144
07/10/93,06:00:00,35.981,46.642
07/10/93,07:00:00,48.922,59.795
07/10/93,08:00:00,62.941,74.854
07/10/93,09:00:00,77.092,87.53
07/10/93,10:00:00,82.222,92.94
07/10/93,11:00:00,79.477,92.101
07/10/93,12:00:00,75.098,88.059
07/10/93,13:00:00,70.163,84.986
07/10/93,14:00:00,67.255,79.816
07/10/93,15:00:00,65.523,78.832
07/10/93,16:00:00,64.607,78.395
07/10/93,17:00:00,65.49,80.23
07/10/93,18:00:00,68.922,83.411
07/10/93,19:00:00,77.451,88.977
07/10/93,20:00:00,74.019,86.197
07/10/93,21:00:00,70.262,82.097
07/10/93,22:00:00,66.209,79.234
07/10/93,23:00:00,63.17,76.032
07/11/93,00:00:00,57.484,70.466
07/11/93,01:00:00,51.471,60.585
07/11/93,02:00:00,41.078,51.132
07/11/93,03:00:00,38.921,48.332
07/11/93,04:00:00,37.451,45.746
07/11/93,05:00:00,35.817,44.576
07/11/93,06:00:00,35.393,43.115
07/11/93,07:00:00,45.588,55.554
07/11/93,08:00:00,58.072,69.905
07/11/93,09:00:00,67.484,81.134
07/11/93,10:00:00,75.915,87.622
07/11/93,11:00:00,76.176,88.722
07/11/93,12:00:00,74.444,86.67
07/11/93,13:00:00,69.837,84.262
07/11/93,14:00:00,68.497,80.835
07/11/93,15:00:00,50.18,79.989
07/11/93,16:00:00,47.287,81.029
07/11/93,17:00:00,65.817,82.409
07/11/93,18:00:00,71.307,83.479
07/11/93,19:00:00,68.824,83.027
07/11/93,20:00:00,70.752,83.232
07/11/93,21:00:00,73.66,84.935
07/11/93,22:00:00,70.621,81.515
07/11/93,23:00:00,65,77.875
07/12/93,00:00:00,57.647,70.692
07/12/93,01:00:00,48.431,54.806
07/12/93,02:00:00,43.432,52.217
07/12/93,03:00:00,39.477,46.706
07/12/93,04:00:00,36.438,45.295
07/12/93,05:00:00,33.53,39.974
07/12/93,06:00:00,42.19,51.626
07/12/93,07:00:00,57.974,70.877
07/12/93,08:00:00,74.216,85.639
07/12/93,09:00:00,78.366,90.255
07/12/93,10:00:00,78.17,90.074
07/12/93,11:00:00,76.47,87.252
07/12/93,12:00:00,72.745,85.37
07/12/93,13:00:00,69.085,83.056
07/12/93,14:00:00,71.046,83.714
07/12/93,15:00:00,67.908,81.655
07/12/93,16:00:00,67.778,80.494
07/12/93,17:00:00,67.974,82.572
07/12/93,18:00:00,72.32,83.022
07/12/93,19:00:00,74.967,86.4
07/12/93,20:00:00,75.85,86.084
07/12/93,21:00:00,76.863,89.022
07/12/93,22:00:00,73.006,84.726
07/12/93,23:00:00,65.817,79.967
07/13/93,00:00:00,59.052,70.816
07/13/93,01:00:00,48.105,57.354
07/13/93,02:00:00,39.869,48.74
07/13/93,03:00:00,38.791,48.394
07/13/93,04:00:00,36.079,43.747
07/13/93,05:00:00,32.745,42.171
07/13/93,06:00:00,38.562,49.211
07/13/93,07:00:00,62.255,68.649
07/13/93,08:00:00,71.765,85.01
07/13/93,09:00:00,78.072,90.914
07/13/93,10:00:00,75.392,87.806
07/13/93,11:00:00,75.457,85.82
07/13/93,12:00:00,70.49,84.599
07/13/93,13:00:00,69.804,83.37
07/13/93,14:00:00,70.719,83.5
07/13/93,15:00:00,66.765,82.47
07/13/93,16:00:00,68.889,82.399
07/13/93,17:00:00,72.81,83.545
07/13/93,18:00:00,74.575,84.737
07/13/93,19:00:00,76.046,86.811
07/13/93,20:00:00,75.85,87.184
07/13/93,21:00:00,74.967,86.525
07/13/93,22:00:00,73.105,83.692
07/13/93,23:00:00,66.274,78.842
07/14/93,00:00:00,58.791,68.565
07/14/93,01:00:00,51.274,61.399
07/14/93,02:00:00,40.686,48.994
07/14/93,03:00:00,38.66,47.961
07/14/93,04:00:00,38.072,44.28
07/14/93,05:00:00,35.066,43.895
07/14/93,06:00:00,42.32,49.712
07/14/93,07:00:00,61.503,70.89
07/14/93,08:00:00,75.163,86.837
07/14/93,09:00:00,77.484,90.512
07/14/93,10:00:00,76.797,87.975
07/14/93,11:00:00,75.653,85.939
07/14/93,12:00:00,71.634,84.62
07/14/93,13:00:00,72.157,84.311
07/14/93,14:00:00,72.974,84.799
07/14/93,15:00:00,71.405,84.499
07/14/93,16:00:00,72.353,82.651
07/14/93,17:00:00,76.013,85.309
07/14/93,18:00:00,75.817,86.174
07/14/93,19:00:00,75.621,87.194
07/14/93,20:00:00,75.294,87.059
07/14/93,21:00:00,73.725,85.78
07/14/93,22:00:00,69.935,82.307
07/14/93,23:00:00,64.542,76.87
07/15/93,00:00:00,58.693,71.266
07/15/93,01:00:00,47.712,58.63
07/15/93,02:00:00,40.948,49.324
07/15/93,03:00:00,39.019,49.112
07/15/93,04:00:00,36.34,44.369
07/15/93,05:00:00,33.203,42.57
07/15/93,06:00:00,39.02,50.409
07/15/93,07:00:00,57.418,70.925
07/15/93,08:00:00,69.346,83.086
07/15/93,09:00:00,66.438,81.881
07/15/93,10:00:00,75.588,87.159
07/15/93,11:00:00,76.732,86.954
07/15/93,12:00:00,74.281,86.14
07/15/93,13:00:00,71.307,84.125
07/15/93,14:00:00,70.588,85.072
07/15/93,15:00:00,67.778,84.189
07/15/93,16:00:00,74.346,85.664
07/15/93,17:00:00,73.66,85.331
07/15/93,18:00:00,75.85,84.365
07/15/93,19:00:00,77.124,87.171
07/15/93,20:00:00,77.157,87.765
07/15/93,21:00:00,76.307,87.082
07/15/93,22:00:00,75.294,84.319
07/15/93,23:00:00,70.196,80.031
07/16/93,00:00:00,59.738,72.58
07/16/93,01:00:00,51.405,63.995
07/16/93,02:00:00,41.373,50.524
07/16/93,03:00:00,37.255,46.804
07/16/93,04:00:00,36.928,46.056
07/16/93,05:00:00,36.765,45.012
07/16/93,06:00:00,40.85,51.386
07/16/93,07:00:00,51.209,70.33
07/16/93,08:00:00,73.497,85.93
07/16/93,09:00:00,77.909,89.182
07/16/93,10:00:00,77.68,89.852
07/16/93,11:00:00,75.032,86.415
07/16/93,12:00:00,68.562,82.442
07/16/93,13:00:00,71.438,84.557
07/16/93,14:00:00,72.941,83.896
07/16/93,15:00:00,71.47,84.049
07/16/93,16:00:00,75,85.952
07/16/93,17:00:00,74.902,86.777
07/16/93,18:00:00,78.693,88.07
07/16/93,19:00:00,79.183,89.77
07/16/93,20:00:00,74.64,87.904
07/16/93,21:00:00,75,86.287
07/16/93,22:00:00,69.902,82.64
07/16/93,23:00:00,65.719,78.869
07/17/93,00:00:00,60.621,72.555
07/17/93,01:00:00,52.026,63.657
07/17/93,02:00:00,45.425,55.442
07/17/93,03:00:00,37.124,46.069
07/17/93,04:00:00,38.17,47.15
07/17/93,05:00:00,37.484,45.96
07/17/93,06:00:00,45.49,55.272
07/17/93,07:00:00,44.967,51.31
07/17/93,08:00:00,66.928,79.867
07/17/93,09:00:00,75.948,86.972
07/17/93,10:00:00,79.542,89.339
07/17/93,11:00:00,77.451,88.035
07/17/93,12:00:00,76.307,85.236
07/17/93,13:00:00,74.052,84.42
07/17/93,14:00:00,74.509,83.626
07/17/93,15:00:00,73.954,83.446
07/17/93,16:00:00,75.752,85.062
07/17/93,17:00:00,77.745,87.327
07/17/93,18:00:00,80.36,89.836
07/17/93,19:00:00,79.706,90.432
07/17/93,20:00:00,76.176,86.615
07/17/93,21:00:00,74.248,84.155
07/17/93,22:00:00,70.032,80.852
07/17/93,23:00:00,64.869,77.044
07/18/93,00:00:00,58.464,69.835
07/18/93,01:00:00,50.98,62.2
07/18/93,02:00:00,45.033,55.741
07/18/93,03:00:00,37.908,46.187
07/18/93,04:00:00,38.628,48.196
07/18/93,05:00:00,38.006,45.961
07/18/93,06:00:00,39.641,49.66
07/18/93,07:00:00,27.026,52.395
07/18/93,08:00:00,58.137,71.049
07/18/93,09:00:00,70.98,83.389
07/18/93,10:00:00,77.255,86.955
07/18/93,11:00:00,77.32,87.682
07/18/93,12:00:00,74.51,84.8
07/18/93,13:00:00,71.307,83.186
07/18/93,14:00:00,71.34,82.365
07/18/93,15:00:00,72.582,82.695
07/18/93,16:00:00,74.346,83.311
07/18/93,17:00:00,77.418,88.529
07/18/93,18:00:00,80.817,89.175
07/18/93,19:00:00,81.177,92.182
07/18/93,20:00:00,81.111,92.696
07/18/93,21:00:00,77.908,89.401
07/18/93,22:00:00,74.346,84.28
07/18/93,23:00:00,68.823,80.234
07/19/93,00:00:00,59.673,71.55
07/19/93,01:00:00,48.006,59.402
07/19/93,02:00:00,42.059,52.311
07/19/93,03:00:00,39.052,46.875
07/19/93,04:00:00,41.078,48.975
07/19/93,05:00:00,41.994,48.176
07/19/93,06:00:00,46.013,53.84
07/19/93,07:00:00,63.235,72.055
07/19/93,08:00:00,77.549,88.68
07/19/93,09:00:00,84.085,96.44
07/19/93,10:00:00,79.412,89.205
07/19/93,11:00:00,76.863,87.675
07/19/93,12:00:00,70.621,83.977
07/19/93,13:00:00,70.098,83.615
07/19/93,14:00:00,72.876,83.284
07/19/93,15:00:00,74.248,82.27
07/19/93,16:00:00,76.274,84.226
07/19/93,17:00:00,78.464,87.35
07/19/93,18:00:00,81.471,90.991
07/19/93,19:00:00,83.987,94.502
07/19/93,20:00:00,83.595,92.615
07/19/93,21:00:00,79.412,90.165
07/19/93,22:00:00,76.307,85.69
07/19/93,23:00:00,70.033,80.505
07/20/93,00:00:00,59.673,71.029
07/20/93,01:00:00,51.634,62.449
07/20/93,02:00:00,42.418,52.114
07/20/93,03:00:00,35.556,46.46
07/20/93,04:00:00,38.954,45.431
07/20/93,05:00:00,40.98,48.334
07/20/93,06:00:00,47.288,54.487
07/20/93,07:00:00,63.791,72.924
07/20/93,08:00:00,77.778,87.587
07/20/93,09:00:00,80.36,90.935
07/20/93,10:00:00,78.922,89.289
07/20/93,11:00:00,75.882,84.941
07/20/93,12:00:00,70.882,83.995
07/20/93,13:00:00,68.595,81.387
07/20/93,14:00:00,69.608,81.544
07/20/93,15:00:00,68.856,80.526
07/20/93,16:00:00,68.791,81.634
07/20/93,17:00:00,74.412,84.706
07/20/93,18:00:00,83.693,92.852
07/20/93,19:00:00,81.798,91.942
07/20/93,20:00:00,81.471,93.189
07/20/93,21:00:00,78.66,89.911
07/20/93,22:00:00,76.895,87.206
07/20/93,23:00:00,70.817,81.135
07/21/93,00:00:00,60.359,72.352
07/21/93,01:00:00,52.19,61.906
07/21/93,02:00:00,42.059,50.916
07/21/93,03:00:00,34.346,46.072
07/21/93,04:00:00,39.314,45.622
07/21/93,05:00:00,40.85,47.637
07/21/93,06:00:00,43.529,49.859
07/21/93,07:00:00,62.811,71.282
07/21/93,08:00:00,73.105,83.464
07/21/93,09:00:00,82.614,93.97
07/21/93,10:00:00,78.529,89.281
07/21/93,11:00:00,80.294,90.737
07/21/93,12:00:00,69.445,81.844
07/21/93,13:00:00,68.824,81.797
07/21/93,14:00:00,67.287,79.937
07/21/93,15:00:00,67.484,79.72
07/21/93,16:00:00,68.791,81.041
07/21/93,17:00:00,72.941,84.182
07/21/93,18:00:00,83.922,95.194
07/21/93,19:00:00,83.627,94.092
07/21/93,20:00:00,88.464,99.404
07/21/93,21:00:00,76.601,105.731
07/21/93,22:00:00,82.189,109.946
07/21/93,23:00:00,66.046,105.466
07/22/93,00:00:00,53.235,87.359
07/22/93,01:00:00,45,70.317
07/22/93,02:00:00,40.85,62.505
07/22/93,03:00:00,38.856,60.712
07/22/93,04:00:00,38.595,57.049
07/22/93,05:00:00,38.235,57.559
07/22/93,06:00:00,42.353,63.447
07/22/93,07:00:00,56.601,83.392
07/22/93,08:00:00,65.261,98.886
07/22/93,09:00:00,68.137,104.996
07/22/93,10:00:00,65.588,101.46
07/22/93,11:00:00,62.876,98.971
07/22/93,12:00:00,60.98,94.461
07/22/93,13:00:00,60.229,93.47
07/22/93,14:00:00,59.216,93.715
07/22/93,15:00:00,59.379,92.38
07/22/93,16:00:00,81.34,91.886
07/22/93,17:00:00,82.81,94.605
07/22/93,18:00:00,86.242,96.636
07/22/93,19:00:00,87.941,98.406
07/22/93,20:00:00,86.536,97.215
07/22/93,21:00:00,85.033,94.564
07/22/93,22:00:00,81.536,91.777
07/22/93,23:00:00,76.993,86.349
07/23/93,00:00:00,64.477,73.274
07/23/93,01:00:00,56.111,66.484
07/23/93,02:00:00,47.778,56.766
07/23/93,03:00:00,42.876,52.556
07/23/93,04:00:00,37.778,44.905
07/23/93,05:00:00,42.974,50.719
07/23/93,06:00:00,49.444,58.206
07/23/93,07:00:00,61.863,79.482
07/23/93,08:00:00,81.765,90.786
07/23/93,09:00:00,84.575,93.717
07/23/93,10:00:00,84.836,95.711
07/23/93,11:00:00,81.307,91.274
07/23/93,12:00:00,77.843,87.665
07/23/93,13:00:00,76.797,87.725
07/23/93,14:00:00,76.372,86.137
07/23/93,15:00:00,76.274,85.975
07/23/93,16:00:00,75.098,84.004
07/23/93,17:00:00,76.863,85.772
07/23/93,18:00:00,79.118,88.587
07/23/93,19:00:00,84.935,93.857
07/23/93,20:00:00,82.745,93.345
07/23/93,21:00:00,81.177,88.975
07/23/93,22:00:00,76.797,86.219
07/23/93,23:00:00,73.072,81.741
07/24/93,00:00:00,63.987,75.87
07/24/93,01:00:00,56.373,67.475
07/24/93,02:00:00,48.366,57.435
07/24/93,03:00:00,42.843,51.889
07/24/93,04:00:00,41.078,48.754
07/24/93,05:00:00,42.68,50.862
07/24/93,06:00:00,46.144,57.801
07/24/93,07:00:00,57.32,68.215
07/24/93,08:00:00,73.431,83.17
07/24/93,09:00:00,92.32,102.96
07/24/93,10:00:00,98.399,109.829
07/24/93,11:00:00,96.046,107.099
07/24/93,12:00:00,96.634,106.504
07/24/93,13:00:00,97.81,110.446
07/24/93,14:00:00,95.392,106.58
07/24/93,15:00:00,87.516,97.29
07/24/93,16:00:00,82.484,90.781
07/24/93,17:00:00,85.327,95.79
07/24/93,18:00:00,87.353,97.496
07/24/93,19:00:00,86.111,94.949
07/24/93,20:00:00,84.216,93.394
07/24/93,21:00:00,80,93.94
07/24/93,22:00:00,78.464,88.181
07/24/93,23:00:00,75.098,85.054
07/25/93,00:00:00,66.405,77.331
07/25/93,01:00:00,58.104,69.422
07/25/93,02:00:00,51.536,61.407
07/25/93,03:00:00,43.105,52.255
07/25/93,04:00:00,40.882,49.187
07/25/93,05:00:00,43.464,52.079
07/25/93,06:00:00,43.987,52.38
07/25/93,07:00:00,25.033,63.522
07/25/93,08:00:00,64.15,75.635
07/25/93,09:00:00,80,87.549
07/25/93,10:00:00,87.255,97.281
07/25/93,11:00:00,86.536,98.351
07/25/93,12:00:00,83.268,93.949
07/25/93,13:00:00,80.621,91.625
07/25/93,14:00:00,78.235,90.242
07/25/93,15:00:00,76.765,85.677
07/25/93,16:00:00,76.601,85.45
07/25/93,17:00:00,77.712,88.025
07/25/93,18:00:00,81.111,90.175
07/25/93,19:00:00,81.732,92.44
07/25/93,20:00:00,81.307,91.114
07/25/93,21:00:00,80.36,91.931
07/25/93,22:00:00,80.033,90.502
07/25/93,23:00:00,77.68,87.48
07/26/93,00:00:00,74.412,84.397
07/26/93,01:00:00,61.895,73.714
07/26/93,02:00:00,53.562,63.839
07/26/93,03:00:00,48.072,57.439
07/26/93,04:00:00,40.817,48.317
07/26/93,05:00:00,45.261,53.622
07/26/93,06:00:00,52.386,61.129
07/26/93,07:00:00,65.719,77.654
07/26/93,08:00:00,82.876,93.004
07/26/93,09:00:00,87.418,100.009
07/26/93,10:00:00,85.817,97.775
07/26/93,11:00:00,83.595,95.174
07/26/93,12:00:00,81.699,92.302
07/26/93,13:00:00,79.085,91.976
07/26/93,14:00:00,77.68,88.965
07/26/93,15:00:00,77.386,86.97
07/26/93,16:00:00,77.843,88.192
07/26/93,17:00:00,78.366,89.226
07/26/93,18:00:00,81.013,91.315
07/26/93,19:00:00,83.039,93.61
07/26/93,20:00:00,83.007,94.005
07/26/93,21:00:00,80.164,92.472
07/26/93,22:00:00,76.372,87.906
07/26/93,23:00:00,71.601,83.111
07/27/93,00:00:00,62.516,75.309
07/27/93,01:00:00,51.732,63.271
07/27/93,02:00:00,46.83,57.841
07/27/93,03:00:00,40.131,49.496
07/27/93,04:00:00,39.02,46.771
07/27/93,05:00:00,42.68,51.574
07/27/93,06:00:00,50.654,60.341
07/27/93,07:00:00,66.438,77.377
07/27/93,08:00:00,80.686,89.916
07/27/93,09:00:00,86.667,100.301
07/27/93,10:00:00,87.091,99.091
07/27/93,11:00:00,83.627,95.93
07/27/93,12:00:00,80.36,92.417
07/27/93,13:00:00,78.595,91.557
07/27/93,14:00:00,79.118,90.46
07/27/93,15:00:00,77.157,88.725
07/27/93,16:00:00,77.745,89.232
07/27/93,17:00:00,77.974,89.454
07/27/93,18:00:00,82.026,93.162
07/27/93,19:00:00,80.882,92.587
07/27/93,20:00:00,81.863,93.234
07/27/93,21:00:00,79.739,92.572
07/27/93,22:00:00,77.549,88.027
07/27/93,23:00:00,74.118,87.58
07/28/93,00:00:00,65.327,79.88
07/28/93,01:00:00,51.242,66.415
07/28/93,02:00:00,45.196,57.47
07/28/93,03:00:00,42.941,54.376
07/28/93,04:00:00,38.137,46.745
07/28/93,05:00:00,39.575,48.312
07/28/93,06:00:00,47.647,57.066
07/28/93,07:00:00,63.53,76.221
07/28/93,08:00:00,80.196,90.387
07/28/93,09:00:00,84.706,97.555
07/28/93,10:00:00,83.627,95.942
07/28/93,11:00:00,81.111,92.47
07/28/93,12:00:00,80.066,91.937
07/28/93,13:00:00,77.615,90.427
07/28/93,14:00:00,78.464,89.417
07/28/93,15:00:00,77.811,89.854
07/28/93,16:00:00,76.307,88.392
07/28/93,17:00:00,76.536,88.884
07/28/93,18:00:00,79.347,91.185
07/28/93,19:00:00,80.033,92.859
07/28/93,20:00:00,78.954,92.682
07/28/93,21:00:00,78.039,91.377
07/28/93,22:00:00,75.098,88.639
07/28/93,23:00:00,70.784,84.099
07/29/93,00:00:00,61.732,75.694
07/29/93,01:00:00,52.843,65.176
07/29/93,02:00:00,45.915,56.129
07/29/93,03:00:00,40.981,51.451
07/29/93,04:00:00,35.327,44.029
07/29/93,05:00:00,40.131,49.727
07/29/93,06:00:00,46.405,56.435
07/29/93,07:00:00,61.83,73.706
07/29/93,08:00:00,74.51,88.029
07/29/93,09:00:00,81.994,93.642
07/29/93,10:00:00,81.144,93.544
07/29/93,11:00:00,77.386,90.714
07/29/93,12:00:00,75.653,88.276
07/29/93,13:00:00,75.621,88.191
07/29/93,14:00:00,75.719,89.149
07/29/93,15:00:00,73.921,87.741
07/29/93,16:00:00,76.111,90.017
07/29/93,17:00:00,74.804,89.385
07/29/93,18:00:00,73.726,87.02
07/29/93,19:00:00,79.641,93.31
07/29/93,20:00:00,79.346,92.489
07/29/93,21:00:00,77.843,91.19
07/29/93,22:00:00,75.098,87.29
07/29/93,23:00:00,71.503,83.684
07/30/93,00:00:00,60.98,75.817
07/30/93,01:00:00,51.176,63.454
07/30/93,02:00:00,44.314,56.617
07/30/93,03:00:00,37.386,46.661
07/30/93,04:00:00,36.765,47.487
07/30/93,05:00:00,39.085,48.744
07/30/93,06:00:00,44.543,56.41
07/30/93,07:00:00,61.797,74.494
07/30/93,08:00:00,69.118,88.671
07/30/93,09:00:00,80.229,93.732
07/30/93,10:00:00,79.641,93.304
07/30/93,11:00:00,80.229,92.107
07/30/93,12:00:00,76.438,88.63
07/30/93,13:00:00,75.327,86.81
07/30/93,14:00:00,75.817,86.727
07/30/93,15:00:00,75.196,89.455
07/30/93,16:00:00,77.288,87.501
07/30/93,17:00:00,77.712,89.659
07/30/93,18:00:00,80.262,90.685
07/30/93,19:00:00,81.895,92.821
07/30/93,20:00:00,80.066,91.532
07/30/93,21:00:00,76.961,88.194
07/30/93,22:00:00,73.758,84.615
07/30/93,23:00:00,67.418,81.39
07/31/93,00:00:00,61.765,74.967
07/31/93,01:00:00,53.954,66.101
07/31/93,02:00:00,46.34,57.964
07/31/93,03:00:00,40.556,50.352
07/31/93,04:00:00,37.876,46.55
07/31/93,05:00:00,41.471,48.36
07/31/93,06:00:00,46.307,55.926
07/31/93,07:00:00,46.634,54.321
07/31/93,08:00:00,73.039,85.735
07/31/93,09:00:00,79.542,91.181
07/31/93,10:00:00,84.085,95.834
07/31/93,11:00:00,82.026,93.822
07/31/93,12:00:00,79.151,90.95
07/31/93,13:00:00,76.895,88.487
07/31/93,14:00:00,77.418,87.321
07/31/93,15:00:00,76.209,89.825
07/31/93,16:00:00,78.758,86.41
07/31/93,17:00:00,81.144,89.979
07/31/93,18:00:00,83.268,92.255
07/31/93,19:00:00,83.431,92.852
07/31/93,20:00:00,81.111,89.255
07/31/93,21:00:00,75.686,87.721
07/31/93,22:00:00,73.562,83.679
07/31/93,23:00:00,67.582,80.636
08/01/93,00:00:00,60.523,73.634